Change the Weather History Date:

Saturday, March 22, 2014

  Actual Average (KHAI) Record (KHAI)
Temperature  
Mean Temperature 35 °F -  
Max Temperature 42 °F 48 °F 80 °F (2012)
Min Temperature 28 °F 27 °F 11 °F (1959)
Degree Days  
Heating Degree Days 30    
Moisture  
Dew Point 29 °F    
Average Humidity 79    
Maximum Humidity 93    
Minimum Humidity 61    
Precipitation  
Precipitation 0.00 in - - ()
Sea Level Pressure  
Sea Level Pressure 30.02 in    
Wind  
Wind Speed 8 mph (NW)    
Max Wind Speed 16 mph    
Max Gust Speed 25 mph    
Visibility 9 miles    
Events Rain    
Averages and records for this station are not official NWS values.
T = Trace of Precipitation, MM = Missing Value Source: NWS Daily Summary

Daily Weather History Graph

Daily Weather History Graph

Search for Another Location

Airport or City:

Trip Planner

Search our weather history database for the weather conditions in past years. The results will help you decide how hot, cold, wet, or windy it might be!

Date:

Astronomy

Mar. 22, 2014 Rise Set
Actual Time 7:41 AM EDT 7:56 PM EDT
Civil Twilight 7:13 AM EDT 8:24 PM EDT
Nautical Twilight 6:41 AM EDT 8:56 PM EDT
Astronomical Twilight 6:07 AM EDT 9:30 PM EDT
Moon 1:18 AM EDT (3/22) 11:20 AM EDT (3/22)
Length of Visible Light 13h 10m
Length of Day
12h 14m
Waning Gibbous, 65% of the Moon is Illuminated
Mar 22
Waning Gibbous
Mar 23
Last Quarter
Mar 30
New
Apr 7
First Quarter
Apr 15
Full

Hourly Weather History & Observations

Time (EDT) Temp. Windchill Dew Point Humidity Pressure Visibility Wind Dir Wind Speed Gust Speed Precip Events Conditions
12:15 AM 41.0 °F 38.0 °F 39.2 °F 93% 29.74 in 3.0 mi NNW 4.6 mph - N/A Rain Rain
12:34 AM 42.8 °F - 39.2 °F 87% 29.74 in 4.0 mi Calm Calm - N/A Rain Rain
12:55 AM 42.8 °F - 41.0 °F 93% 29.71 in 7.0 mi Calm Calm - N/A Rain Light Rain
1:15 AM 42.8 °F - 39.2 °F 87% 29.70 in 10.0 mi Calm Calm - N/A Rain Light Rain
1:34 AM 42.8 °F 37.5 °F 39.2 °F 87% 29.72 in 10.0 mi West 9.2 mph - N/A   Overcast
1:55 AM 42.8 °F 35.8 °F 39.2 °F 87% 29.73 in 10.0 mi West 13.8 mph 21.9 mph N/A   Mostly Cloudy
2:14 AM 42.8 °F 37.0 °F 37.4 °F 81% 29.74 in 7.0 mi WNW 10.4 mph 17.3 mph N/A   Mostly Cloudy
2:34 AM 42.8 °F 36.6 °F 37.4 °F 81% 29.76 in 7.0 mi West 11.5 mph 17.3 mph N/A   Mostly Cloudy
2:55 AM 41.0 °F 32.8 °F 35.6 °F 81% 29.78 in 7.0 mi WNW 16.1 mph 20.7 mph N/A   Scattered Clouds
3:14 AM 39.2 °F 31.6 °F 35.6 °F 87% 29.79 in 7.0 mi West 12.7 mph 19.6 mph N/A   Clear
3:35 AM 37.4 °F 29.3 °F 33.8 °F 87% 29.80 in 7.0 mi WNW 12.7 mph 19.6 mph N/A   Clear
3:55 AM 37.4 °F 28.5 °F 33.8 °F 87% 29.82 in 7.0 mi WNW 15.0 mph 24.2 mph N/A   Clear
4:14 AM 37.4 °F 28.5 °F 33.8 °F 87% 29.83 in 7.0 mi WNW 15.0 mph 21.9 mph N/A   Mostly Cloudy
4:34 AM 37.4 °F 30.3 °F 33.8 °F 87% 29.84 in 7.0 mi WNW 10.4 mph 25.3 mph N/A   Overcast
4:55 AM 37.4 °F 28.2 °F 32.0 °F 81% 29.86 in 7.0 mi NW 16.1 mph 24.2 mph N/A   Overcast
5:14 AM 35.6 °F 27.5 °F 32.0 °F 87% 29.87 in 7.0 mi NW 11.5 mph 16.1 mph N/A   Overcast
5:34 AM 35.6 °F 27.5 °F 32.0 °F 87% 29.88 in 7.0 mi WNW 11.5 mph 18.4 mph N/A   Overcast
5:55 AM 35.6 °F 28.0 °F 32.0 °F 87% 29.89 in 7.0 mi NW 10.4 mph 25.3 mph N/A   Overcast
6:14 AM 35.6 °F 26.6 °F 32.0 °F 87% 29.90 in 7.0 mi NNW 13.8 mph 19.6 mph N/A   Overcast
6:35 AM 35.6 °F 27.5 °F 30.2 °F 81% 29.91 in 7.0 mi NW 11.5 mph 24.2 mph N/A   Mostly Cloudy
6:55 AM 33.8 °F 26.4 °F 30.2 °F 87% 29.93 in 7.0 mi NW 9.2 mph - N/A   Scattered Clouds
7:14 AM 33.8 °F 27.0 °F 30.2 °F 87% 29.95 in 7.0 mi NW 8.1 mph - N/A   Mostly Cloudy
7:35 AM 33.8 °F 26.4 °F 30.2 °F 87% 29.96 in 7.0 mi NW 9.2 mph - N/A   Overcast
7:55 AM 33.8 °F 27.0 °F 30.2 °F 87% 29.96 in 7.0 mi NNW 8.1 mph 16.1 mph N/A   Overcast
8:14 AM 33.8 °F 27.0 °F 30.2 °F 87% 29.98 in 10.0 mi NW 8.1 mph - N/A   Overcast
8:35 AM 33.8 °F 25.3 °F 28.4 °F 81% 29.99 in 10.0 mi NW 11.5 mph - N/A   Overcast
8:55 AM 33.8 °F 24.8 °F 28.4 °F 81% 30.00 in 10.0 mi NNW 12.7 mph 18.4 mph N/A   Overcast
9:14 AM 33.8 °F 26.4 °F 28.4 °F 81% 30.01 in 7.0 mi NW 9.2 mph - N/A   Overcast
9:35 AM 33.8 °F 27.0 °F 28.4 °F 81% 30.02 in 10.0 mi NNW 8.1 mph - N/A   Overcast
9:55 AM 33.8 °F 27.7 °F 28.4 °F 81% 30.04 in 10.0 mi NW 6.9 mph 17.3 mph N/A   Overcast
10:14 AM 33.8 °F 29.6 °F 28.4 °F 81% 30.06 in 10.0 mi WNW 4.6 mph - N/A   Overcast
10:35 AM 33.8 °F 28.6 °F 28.4 °F 81% 30.07 in 10.0 mi WNW 5.8 mph - N/A   Overcast
10:55 AM 33.8 °F 27.7 °F 28.4 °F 81% 30.08 in 10.0 mi WNW 6.9 mph - N/A   Overcast
11:14 AM 33.8 °F 28.6 °F 28.4 °F 81% 30.09 in 10.0 mi NW 5.8 mph - N/A   Overcast
11:35 AM 33.8 °F 26.4 °F 28.4 °F 81% 30.09 in 10.0 mi NW 9.2 mph - N/A   Overcast
11:55 AM 33.8 °F 27.7 °F 28.4 °F 81% 30.10 in 10.0 mi WNW 6.9 mph - N/A   Overcast
12:15 PM 35.6 °F 29.9 °F 28.4 °F 75% 30.10 in 10.0 mi WNW 6.9 mph - N/A   Overcast
12:35 PM 35.6 °F 29.2 °F 28.4 °F 75% 30.10 in 10.0 mi WNW 8.1 mph - N/A   Overcast
12:54 PM 35.6 °F 29.2 °F 28.4 °F 75% 30.10 in 10.0 mi West 8.1 mph - N/A   Overcast
1:15 PM 37.4 °F 32.8 °F 28.4 °F 70% 30.10 in 10.0 mi NW 5.8 mph - N/A   Overcast
1:35 PM 37.4 °F 30.3 °F 28.4 °F 70% 30.11 in 10.0 mi WNW 10.4 mph - N/A   Mostly Cloudy
1:54 PM 37.4 °F 31.4 °F 26.6 °F 65% 30.11 in 10.0 mi NW 8.1 mph - N/A   Mostly Cloudy
2:15 PM 37.4 °F 29.8 °F 26.6 °F 65% 30.11 in 10.0 mi NW 11.5 mph - N/A   Overcast
2:35 PM 39.2 °F 32.5 °F 28.4 °F 65% 30.10 in 10.0 mi WNW 10.4 mph 17.3 mph N/A   Overcast
2:54 PM 39.2 °F 30.8 °F 26.6 °F 61% 30.11 in 10.0 mi WNW 15.0 mph 18.4 mph N/A   Overcast
3:15 PM 37.4 °F 29.8 °F 28.4 °F 70% 30.11 in 10.0 mi WNW 11.5 mph 17.3 mph N/A   Overcast
3:35 PM 37.4 °F 30.8 °F 28.4 °F 70% 30.11 in 10.0 mi WNW 9.2 mph - N/A   Overcast
3:54 PM 35.6 °F 27.5 °F 28.4 °F 75% 30.11 in 10.0 mi NW 11.5 mph - N/A   Overcast
4:15 PM 35.6 °F 27.1 °F 28.4 °F 75% 30.12 in 10.0 mi NW 12.7 mph 16.1 mph N/A   Overcast
4:34 PM 37.4 °F 29.8 °F 28.4 °F 70% 30.12 in 10.0 mi NW 11.5 mph - N/A   Overcast
4:55 PM 35.6 °F 29.9 °F 28.4 °F 75% 30.12 in 10.0 mi WNW 6.9 mph - N/A   Overcast
5:15 PM 35.6 °F 29.2 °F 28.4 °F 75% 30.13 in 10.0 mi WNW 8.1 mph - N/A   Overcast
5:34 PM 35.6 °F 26.6 °F 28.4 °F 75% 30.13 in 10.0 mi NW 13.8 mph 17.3 mph N/A   Overcast
5:55 PM 35.6 °F 28.6 °F 28.4 °F 75% 30.13 in 10.0 mi NW 9.2 mph - N/A   Overcast
6:15 PM 37.4 °F 30.3 °F 28.4 °F 70% 30.13 in 10.0 mi NW 10.4 mph - N/A   Overcast
6:34 PM 35.6 °F 27.5 °F 26.6 °F 70% 30.14 in 10.0 mi NW 11.5 mph 18.4 mph N/A   Overcast
6:55 PM 33.8 °F 24.8 °F 26.6 °F 75% 30.15 in 10.0 mi NNW 12.7 mph 18.4 mph N/A   Overcast
7:15 PM 33.8 °F 26.4 °F 26.6 °F 75% 30.15 in 10.0 mi NW 9.2 mph 16.1 mph N/A   Overcast
7:34 PM 33.8 °F 25.8 °F 26.6 °F 75% 30.16 in 10.0 mi WNW 10.4 mph - N/A   Overcast
7:55 PM 32.0 °F 24.8 °F 24.8 °F 75% 30.17 in 10.0 mi WNW 8.1 mph - N/A   Scattered Clouds
8:15 PM 32.0 °F 23.6 °F 24.8 °F 75% 30.18 in 10.0 mi WNW 10.4 mph 16.1 mph N/A   Scattered Clouds
8:34 PM 30.2 °F 22.6 °F 24.8 °F 80% 30.18 in 10.0 mi WNW 8.1 mph - N/A   Scattered Clouds
8:55 PM 30.2 °F 23.4 °F 24.8 °F 80% 30.19 in 10.0 mi WNW 6.9 mph - N/A   Scattered Clouds
9:15 PM 30.2 °F 22.6 °F 24.8 °F 80% 30.20 in 10.0 mi WNW 8.1 mph - N/A   Mostly Cloudy
9:34 PM 28.4 °F 20.4 °F 24.8 °F 86% 30.21 in 10.0 mi WNW 8.1 mph - N/A   Mostly Cloudy
9:55 PM 28.4 °F 20.4 °F 23.0 °F 80% 30.21 in 10.0 mi WNW 8.1 mph - N/A   Scattered Clouds
10:15 PM 28.4 °F 19.1 °F 21.2 °F 74% 30.21 in 10.0 mi NW 10.4 mph - N/A   Scattered Clouds
10:34 PM 28.4 °F 22.2 °F 21.2 °F 74% 30.20 in 10.0 mi NNW 5.8 mph - N/A   Clear
10:55 PM 28.4 °F 18.5 °F 21.2 °F 74% 30.22 in 10.0 mi NNW 11.5 mph - N/A   Clear
11:15 PM 28.4 °F 19.1 °F 19.4 °F 69% 30.22 in 10.0 mi NW 10.4 mph - N/A   Clear
11:34 PM 28.4 °F 19.7 °F 19.4 °F 69% 30.23 in 10.0 mi NW 9.2 mph - N/A   Clear
11:55 PM 28.4 °F 21.2 °F 19.4 °F 69% 30.23 in 10.0 mi NNW 6.9 mph - N/A   Clear